This is the latest recevied weather packets stored in our database for station/object EA5GTE-12. If no packets are shown the sender has not sent any weather packets the latest 10 day(s).
| Time | Temp. | Humidity | Pressure | Rain* | Wind** | Luminosity | Snow |
|---|---|---|---|---|---|---|---|
| 1787471585 | 27.78° C | 76% | 940.7 hPa | - | - | - | - |
| 1787470684 | 26.67° C | 87% | 940.6 hPa | - | - | - | - |
| 1787469784 | 25.56° C | 95% | 940.8 hPa | - | - | - | - |
| 1787468884 | 24.44° C | 100% | 940.8 hPa | - | - | - | - |
| 1787467984 | 24.44° C | 100% | 940.8 hPa | - | - | - | - |
| 1787467084 | 22.78° C | 100% | 940.8 hPa | - | - | - | - |
| 1787466184 | 22.22° C | 100% | 940.8 hPa | - | - | - | - |
| 1787465284 | 21.67° C | 100% | 940.9 hPa | - | - | - | - |
| 1787464384 | 19.44° C | 100% | 940.8 hPa | - | - | - | - |
| 1787463484 | 18.33° C | 100% | 940.7 hPa | - | - | - | - |
| 1787462584 | 17.78° C | 100% | 940.5 hPa | - | - | - | - |
| 1787461684 | 17.78° C | 100% | 940.4 hPa | - | - | - | - |
| 1787460784 | 18.33° C | 100% | 940.3 hPa | - | - | - | - |
| 1787459884 | 18.33° C | 100% | 940.3 hPa | - | - | - | - |
| 1787458087 | 17.78° C | 100% | 940.3 hPa | - | - | - | - |
| 1787457187 | 18.33° C | 100% | 940.2 hPa | - | - | - | - |
| 1787456287 | 18.89° C | 100% | 940.2 hPa | - | - | - | - |
| 1787455387 | 18.89° C | 100% | 940.2 hPa | - | - | - | - |
| 1787454486 | 18.89° C | 100% | 940.3 hPa | - | - | - | - |
| 1787453586 | 19.44° C | 100% | 940.2 hPa | - | - | - | - |
| 1787452686 | 19.44° C | 100% | 940.1 hPa | - | - | - | - |
| 1787451786 | 19.44° C | 100% | 940.2 hPa | - | - | - | - |
| 1787450886 | 19.44° C | 100% | 940.3 hPa | - | - | - | - |
| 1787449985 | 19.44° C | 100% | 940.3 hPa | - | - | - | - |
| 1787449085 | 20° C | 100% | 940.3 hPa | - | - | - | - |
* Rain since midnight (hover to see other rain measurements)
** Current wind speed in m/s (hover to see current wind gust speed)